FW7772 Weather Reports


Display with metric or nautical units.
time (UTC)temp
F
wind
direction
speed
MPH
gust
MPH
rain 1hr
in
rain 24hr
in
rain mn
in
humidity
%
barometer
mb
20260901033651 44 294 6.0 9.0 0.00 0.01 0.00 91 1008.2
20260901032652 44 310 5.0 9.0 0.00 0.01 0.00 91 1008.1
20260901032132 44 314 5.0 9.0 0.00 0.01 0.00 91 1008.3
20260901030651 44 310 4.0 8.0 0.00 0.01 0.00 91 1008.2
20260901025652 44 314 4.0 8.0 0.00 0.01 0.00 91 1008.1
20260901024646 45 322 3.0 7.0 0.00 0.01 0.00 91 1008.0
20260901023646 45 320 4.0 7.0 0.00 0.01 0.00 91 1007.9
20260901022646 45 340 6.0 10.0 0.00 0.01 0.00 91 1007.9
20260901021645 45 310 6.0 9.0 0.00 0.01 0.00 91 1007.7
20260901020646 45 305 5.0 10.0 0.00 0.01 0.00 91 1007.7
20260901015645 46 310 7.0 10.0 0.00 0.01 0.00 91 1007.6
20260901014646 46 300 5.0 9.0 0.00 0.01 0.00 91 1007.6
20260901013647 46 300 4.0 5.0 0.00 0.01 0.00 91 1007.6
20260901012645 46 300 4.0 6.0 0.00 0.01 0.00 90 1007.5
20260901011640 47 291 2.0 4.0 0.00 0.01 0.00 90 1007.4
20260901010640 47 289 4.0 8.0 0.00 0.01 0.00 90 1007.4
20260901005639 47 286 4.0 8.0 0.00 0.01 0.00 89 1007.4
20260901004640 48 310 2.0 4.0 0.00 0.01 0.00 89 1007.3
20260901003639 48 310 1.0 2.0 0.00 0.02 0.00 89 1007.4
20260901002639 48 310 2.0 4.0 0.00 0.02 0.00 88 1007.4
20260901001639 49 318 1.0 3.0 0.00 0.02 0.00 89 1007.3
20260901000639 49 310 2.0 4.0 0.00 0.06 0.00 89 1007.3
20260901000127 49 305 2.0 3.0 0.00 0.08 0.00 88 1007.4
20260831234634 50 305 2.0 3.0 0.00 0.09 0.00 88 1007.3
20260831233633 50 288 2.0 4.0 0.00 0.09 0.00 88 1007.3
20260831232635 51 277 2.0 4.0 0.00 0.10 0.00 88 1007.3
20260831231634 51 291 3.0 5.0 0.00 0.10 0.00 88 1007.4
20260831231117 51 300 3.0 4.0 0.00 0.10 0.00 88 1007.3
20260831225633 52 315 2.0 4.0 0.00 0.10 0.00 87 1007.3
20260831224635 53 314 2.0 5.0 0.00 0.10 0.00 87 1007.1
20260831224113 53 310 3.0 4.0 0.00 0.10 0.00 87 1006.8
20260831222631 53 300 4.0 9.0 0.00 0.10 0.00 87 1007.0
20260831221632 54 274 5.0 9.0 0.00 0.10 0.00 87 1006.8
20260831220634 55 285 2.0 5.0 0.00 0.10 0.00 86 1006.7
20260831215632 55 300 1.0 3.0 0.00 0.10 0.10 86 1006.7
20260831214633 56 300 1.0 2.0 0.00 0.10 0.10 85 1006.5
20260831214107 56 290 0.0 3.0 0.00 0.10 0.10 85 1006.5
20260831212632 57 281 2.0 5.0 0.00 0.10 0.10 85 1006.4
20260831211632 57 274 3.0 8.0 0.00 0.10 0.10 85 1006.3
20260831210632 57 281 3.0 6.0 0.00 0.10 0.10 85 1006.3
20260831205632 57 300 3.0 5.0 0.00 0.10 0.10 86 1006.2
20260831204631 58 322 4.0 6.0 0.00 0.10 0.10 86 1006.2
20260831203634 58 300 4.0 5.0 0.00 0.10 0.10 87 1006.1
20260831202632 59 288 3.0 4.0 0.00 0.10 0.10 89 1006.1
20260831201631 59 321 1.0 2.0 0.00 0.10 0.10 88 1006.1
20260831200631 59 353 0.0 1.0 0.00 0.10 0.10 89 1006.1
20260831195631 60 353 1.0 3.0 0.00 0.10 0.10 88 1005.8
20260831194634 60 321 3.0 8.0 0.00 0.10 0.10 89 1005.8
20260831194557 60 329 1.0 4.0 0.00 0.10 0.10 89 1005.7
20260831192630 60 305 0.0 0.0 0.00 0.10 0.10 89 1005.6
20260831192546 60 305 0.0 1.0 0.00 0.10 0.10 89 1005.5
20260831190631 61 305 1.0 2.0 0.00 0.10 0.10 89 1005.3
20260831190112 61 346 1.0 3.0 0.00 0.10 0.10 89 1005.3
20260831184634 61 336 3.0 8.0 0.00 0.10 0.10 88 1005.2
20260831183631 62 267 0.0 2.0 0.00 0.10 0.10 88 1005.2
20260831183118 62 267 0.0 0.0 0.00 0.10 0.10 88 1005.0
20260831182116 62 267 0.0 0.0 0.00 0.10 0.10 88 1004.8
20260831180630 62 320 0.0 0.0 0.00 0.10 0.10 87 1004.8
20260831180109 62 320 0.0 2.0 0.00 0.10 0.10 87 1004.7
20260831174630 63 320 1.0 3.0 0.01 0.10 0.10 87 1004.5
20260831173632 63 343 1.0 2.0 0.01 0.10 0.10 88 1004.4
20260831172630 63 212 0.0 1.0 0.01 0.10 0.10 87 1004.4
20260831172105 63 212 0.0 2.0 0.01 0.10 0.10 86 1004.3
20260831171108 62 212 1.0 3.0 0.01 0.10 0.10 87 1004.3
20260831165630 62 212 1.0 3.0 0.01 0.10 0.10 89 1004.2
20260831164630 62 258 1.0 4.0 0.00 0.09 0.09 89 1004.2
20260831163630 62 330 1.0 2.0 0.00 0.09 0.09 90 1004.2
20260831162630 63 330 1.0 3.0 0.00 0.09 0.09 86 1004.1
20260831161630 65 353 3.0 8.0 0.00 0.09 0.09 81 1004.0
20260831160630 65 317 3.0 5.0 0.00 0.09 0.09 81 1004.0
20260831155630 65 340 2.0 8.0 0.00 0.09 0.09 82 1003.9
20260831154630 66 245 0.0 0.0 0.00 0.09 0.09 80 1003.7
20260831154110 65 245 0.0 0.0 0.00 0.09 0.09 80 1003.7
20260831152630 66 245 0.0 0.0 0.00 0.09 0.09 77 1003.6
20260831151630 66 245 0.0 0.0 0.00 0.09 0.09 78 1003.6
20260831150631 66 193 0.0 2.0 0.00 0.09 0.09 74 1003.6
20260831145630 67 157 1.0 3.0 0.00 0.09 0.09 76 1003.5
20260831144631 65 202 1.0 3.0 0.00 0.09 0.09 78 1003.7
20260831143633 64 202 2.0 6.0 0.00 0.09 0.09 79 1003.7
20260831143112 64 174 3.0 9.0 0.00 0.09 0.09 78 1003.6
20260831141630 65 173 4.0 10.0 0.00 0.09 0.09 78 1003.6
20260831141103 66 132 3.0 8.0 0.00 0.09 0.09 75 1003.4
20260831135631 67 179 2.0 7.0 0.00 0.09 0.09 71 1003.4
20260831135106 68 153 4.0 10.0 0.00 0.09 0.09 69 1003.5
20260831133630 70 200 4.0 9.0 0.00 0.09 0.09 67 1003.3
20260831132630 68 145 1.0 5.0 0.00 0.09 0.09 78 1003.4
20260831131630 68 275 1.0 3.0 0.00 0.09 0.09 77 1003.2
20260831131549 66 4 2.0 4.0 0.00 0.09 0.09 81 1003.3
20260831125631 65 293 3.0 8.0 0.00 0.09 0.09 85 1003.4
20260831124631 64 334 6.0 10.0 0.00 0.10 0.09 82 1003.3
20260831123630 65 310 8.0 11.0 0.00 0.11 0.09 78 1003.2
20260831123551 66 320 4.0 11.0 0.00 0.11 0.09 75 1003.1
20260831121630 67 351 4.0 10.0 0.00 0.11 0.09 76 1003.1
20260831120631 68 186 4.0 9.0 0.00 0.11 0.09 72 1003.1
20260831120118 69 160 5.0 10.0 0.00 0.11 0.09 70 1003.0
20260831114631 69 205 2.0 8.0 0.00 0.11 0.09 71 1003.1
20260831113630 67 255 2.0 8.0 0.00 0.11 0.09 70 1003.1
20260831112632 66 295 3.0 10.0 0.00 0.11 0.09 73 1003.0
20260831111631 67 204 3.0 11.0 0.00 0.11 0.09 72 1003.0
20260831110631 67 142 3.0 10.0 0.00 0.11 0.09 72 1003.1
20260831105630 68 266 3.0 7.0 0.00 0.11 0.09 72 1003.0
20260831105103 65 237 3.0 8.0 0.00 0.11 0.09 78 1003.1
20260831103632 67 80 0.0 0.0 0.00 0.11 0.09 84 1003.0
20260831102630 64 212 0.0 3.0 0.00 0.11 0.09 86 1003.1
20260831101631 63 247 1.0 6.0 0.00 0.11 0.09 85 1003.1
20260831100631 64 286 1.0 5.0 0.00 0.11 0.09 81 1003.2
20260831095630 62 230 1.0 5.0 0.00 0.11 0.09 86 1003.1
20260831094630 62 190 1.0 5.0 0.00 0.11 0.09 88 1003.1
20260831093630 62 266 3.0 8.0 0.00 0.11 0.09 88 1003.1
20260831092631 62 241 4.0 10.0 0.00 0.11 0.09 89 1003.2
20260831091630 62 217 4.0 10.0 0.00 0.11 0.09 88 1003.1
20260831090631 62 189 4.0 9.0 0.00 0.11 0.09 90 1003.2
20260831085629 60 222 2.0 6.0 0.00 0.11 0.09 93 1003.2
20260831084631 59 123 1.0 7.0 0.00 0.11 0.09 93 1003.1
20260831083631 59 166 1.0 4.0 0.00 0.11 0.09 93 1003.2
20260831082626 60 183 2.0 4.0 0.00 0.11 0.09 93 1003.2
20260831081626 60 200 0.0 4.0 0.00 0.11 0.09 94 1003.1
20260831081111 60 112 0.0 0.0 0.00 0.11 0.09 94 1003.1
20260831075628 60 112 0.0 0.0 0.00 0.11 0.09 94 1003.1
20260831074626 60 112 0.0 0.0 0.00 0.11 0.09 94 1003.1
20260831073625 59 112 0.0 0.0 0.00 0.11 0.09 94 1003.0
20260831073117 59 112 0.0 0.0 0.00 0.11 0.09 94 1002.9
20260831071626 59 112 0.0 0.0 0.00 0.11 0.09 94 1003.0
20260831070626 59 112 0.0 0.0 0.00 0.12 0.09 94 1002.8
20260831065626 59 112 0.0 0.0 0.00 0.12 0.09 95 1002.9
20260831065101 58 112 0.0 0.0 0.00 0.12 0.09 95 1002.8
20260831063623 58 112 0.0 0.0 0.00 0.12 0.09 95 1002.8
20260831063105 58 138 0.0 0.0 0.00 0.13 0.09 95 1002.8
20260831062549 57 209 0.0 0.0 0.00 0.13 0.09 95 1002.7
20260831060619 57 209 0.0 0.0 0.00 0.13 0.09 95 1002.8
20260831060104 57 209 0.0 0.0 0.00 0.13 0.09 95 1002.8
20260831055053 57 209 0.0 0.0 0.00 0.13 0.09 95 1002.6
20260831053616 57 209 0.0 0.0 0.00 0.13 0.09 94 1002.6
20260831052616 57 209 0.0 0.0 0.00 0.13 0.09 94 1002.6
20260831051616 56 209 0.0 0.0 0.00 0.13 0.09 94 1002.7
20260831050616 56 209 0.0 0.0 0.00 0.13 0.09 94 1002.8
20260831045615 56 209 0.0 0.0 0.00 0.13 0.09 94 1002.7
20260831045046 55 209 0.0 0.0 0.00 0.13 0.09 94 1002.7
20260831043609 55 209 0.0 0.0 0.00 0.13 0.09 93 1002.6
20260831043059 55 209 0.0 0.0 0.00 0.13 0.09 93 1002.5
20260831042047 55 209 0.0 0.0 0.00 0.13 0.09 93 1002.5
20260831040609 55 209 0.0 0.0 0.00 0.13 0.09 93 1002.4
20260831035610 55 209 0.0 0.0 0.00 0.13 0.09 93 1002.5
20260831034610 55 209 0.0 0.0 0.00 0.13 0.09 93 1002.5